| time (UTC) | temp C | wind direction | speed KPH | gust KPH | rain 1hr cm | rain 24hr cm | rain mn cm | humidity % | barometer mb |
| 20260503010011 | 6 | 223 | 0.0 | 0.0 | 0.00 | 0.00 | 0.00 | 48 | 1015.7 |
| 20260503005010 | 6 | 175 | 0.0 | 0.0 | 0.00 | 0.00 | 0.00 | 48 | 1015.5 |
| 20260503003009 | 7 | 290 | 0.0 | 0.0 | 0.00 | 0.00 | 0.00 | 46 | 1015.4 |
| 20260503002009 | 7 | 290 | 0.0 | 0.0 | 0.00 | 0.00 | 0.00 | 46 | 1015.5 |
| 20260503001008 | 8 | 279 | 0.0 | 0.0 | 0.00 | 0.00 | 0.00 | 44 | 1015.5 |
| 20260503000007 | 8 | 209 | 0.0 | 0.0 | 0.00 | 0.00 | 0.00 | 44 | 1015.5 |
| 20260502235007 | 8 | 27 | 0.0 | 0.0 | 0.00 | 0.00 | 0.00 | 44 | 1015.4 |
| 20260502234006 | 8 | 315 | 0.0 | 0.0 | 0.00 | 0.00 | 0.00 | 45 | 1015.4 |
| 20260502233006 | 8 | 316 | 0.0 | 0.0 | 0.00 | 0.00 | 0.00 | 45 | 1015.5 |
| 20260502232006 | 8 | 314 | 0.0 | 0.0 | 0.00 | 0.00 | 0.00 | 44 | 1015.5 |
| 20260502231006 | 8 | 313 | 0.0 | 0.0 | 0.00 | 0.00 | 0.00 | 44 | 1015.5 |
| 20260502225005 | 8 | 316 | 0.0 | 0.0 | 0.00 | 0.00 | 0.00 | 42 | 1015.6 |
| 20260502224004 | 8 | 311 | 0.0 | 0.0 | 0.00 | 0.00 | 0.00 | 43 | 1015.6 |
| 20260502223003 | 8 | 308 | 0.0 | 0.0 | 0.00 | 0.00 | 0.00 | 44 | 1015.6 |
| 20260502222002 | 8 | 268 | 0.0 | 0.0 | 0.00 | 0.00 | 0.00 | 43 | 1015.6 |
| 20260502215001 | 8 | 317 | 0.0 | 0.0 | 0.00 | 0.00 | 0.00 | 47 | 1015.6 |
| 20260502214000 | 8 | 224 | 0.0 | 0.0 | 0.00 | 0.00 | 0.00 | 47 | 1015.7 |
| 20260502213000 | 8 | 308 | 0.0 | 0.0 | 0.00 | 0.00 | 0.00 | 47 | 1015.8 |
| 20260502212000 | 8 | 35 | 0.0 | 0.0 | 0.00 | 0.00 | 0.00 | 47 | 1015.7 |
| 20260502210959 | 8 | 297 | 0.0 | 0.0 | 0.00 | 0.00 | 0.00 | 47 | 1015.8 |
| 20260502205958 | 8 | 301 | 0.0 | 3.2 | 0.00 | 0.00 | 0.00 | 46 | 1015.9 |
| 20260502204958 | 8 | 307 | 0.0 | 0.0 | 0.00 | 0.00 | 0.00 | 48 | 1016.0 |
| 20260502203957 | 7 | 296 | 0.0 | 3.2 | 0.00 | 0.00 | 0.00 | 47 | 1016.1 |
| 20260502202956 | 8 | 308 | 0.0 | 3.2 | 0.00 | 0.00 | 0.00 | 44 | 1016.1 |
| 20260502201956 | 8 | 309 | 0.0 | 0.0 | 0.00 | 0.00 | 0.00 | 44 | 1016.1 |
| 20260502200955 | 8 | 315 | 0.0 | 0.0 | 0.00 | 0.00 | 0.00 | 44 | 1016.2 |
| 20260502195954 | 8 | 264 | 0.0 | 0.0 | 0.00 | 0.00 | 0.00 | 43 | 1016.4 |
| 20260502192952 | 7 | 297 | 0.0 | 0.0 | 0.00 | 0.00 | 0.00 | 45 | 1016.6 |
| 20260502190951 | 7 | 304 | 0.0 | 16.1 | 0.00 | 0.00 | 0.00 | 44 | 1016.9 |
| 20260502184951 | 8 | 312 | 0.0 | 32.2 | 0.00 | 0.00 | 0.00 | 41 | 1017.0 |
| 20260502183951 | 7 | 316 | 0.0 | 0.0 | 0.00 | 0.00 | 0.00 | 44 | 1017.0 |
| 20260502182951 | 7 | 312 | 0.0 | 0.0 | 0.00 | 0.00 | 0.00 | 41 | 1017.1 |
| 20260502181950 | 8 | 311 | 0.0 | 0.0 | 0.00 | 0.00 | 0.00 | 44 | 1017.2 |
| 20260502180950 | 7 | 194 | 0.0 | 3.2 | 0.00 | 0.00 | 0.00 | 48 | 1017.2 |
| 20260502163947 | 7 | 316 | 0.0 | 16.1 | 0.00 | 0.03 | 0.00 | 44 | 1018.0 |
| 20260502162947 | 7 | 308 | 0.0 | 0.0 | 0.00 | 0.03 | 0.00 | 48 | 1018.0 |
| 20260502161946 | 6 | 313 | 0.0 | 0.0 | 0.00 | 0.03 | 0.00 | 48 | 1017.9 |
| 20260502160945 | 6 | 306 | 0.0 | 0.0 | 0.00 | 0.03 | 0.00 | 50 | 1017.9 |
| 20260502150942 | 6 | 294 | 0.0 | 0.0 | 0.00 | 0.03 | 0.00 | 52 | 1017.9 |
| 20260502123004 | 1 | 314 | 0.0 | 6.4 | 0.00 | 0.03 | 0.00 | 79 | 1017.9 |
| 20260502122004 | 1 | 314 | 0.0 | 0.0 | 0.00 | 0.03 | 0.00 | 81 | 1017.8 |
| 20260502121004 | 1 | 314 | 0.0 | 0.0 | 0.00 | 0.03 | 0.00 | 82 | 1017.9 |
| 20260502113004 | 0 | 310 | 0.0 | 0.0 | 0.00 | 0.03 | 0.00 | 86 | 1017.5 |
| 20260502111002 | -1 | 310 | 0.0 | 0.0 | 0.00 | 0.03 | 0.00 | 88 | 1017.3 |
| 20260502110002 | -1 | 310 | 0.0 | 0.0 | 0.00 | 0.03 | 0.00 | 87 | 1017.2 |
| 20260502105001 | -1 | 310 | 0.0 | 0.0 | 0.00 | 0.03 | 0.00 | 87 | 1017.1 |
| 20260502104000 | -1 | 310 | 0.0 | 0.0 | 0.00 | 0.03 | 0.00 | 86 | 1017.2 |
| 20260502103000 | -1 | 310 | 0.0 | 0.0 | 0.00 | 0.03 | 0.00 | 86 | 1017.2 |
| 20260502101959 | -1 | 310 | 0.0 | 0.0 | 0.00 | 0.03 | 0.00 | 86 | 1017.1 |
| 20260502100958 | -1 | 310 | 0.0 | 0.0 | 0.00 | 0.03 | 0.00 | 85 | 1017.1 |
| 20260502090955 | 0 | 310 | 0.0 | 0.0 | 0.00 | 0.03 | 0.00 | 81 | 1016.9 |
| 20260502070945 | 2 | 310 | 0.0 | 0.0 | 0.00 | 0.03 | 0.00 | 69 | 1016.4 |
| 20260502065944 | 2 | 310 | 0.0 | 0.0 | 0.00 | 0.03 | 0.00 | 69 | 1016.4 |
| 20260502064943 | 3 | 310 | 0.0 | 0.0 | 0.00 | 0.03 | 0.00 | 69 | 1016.5 |
| 20260502063943 | 3 | 310 | 0.0 | 0.0 | 0.00 | 0.03 | 0.00 | 68 | 1016.6 |
| 20260502063011 | 3 | 310 | 0.0 | 0.0 | 0.00 | 0.03 | 0.00 | 68 | 1016.6 |
| 20260502061940 | 3 | 310 | 0.0 | 0.0 | 0.00 | 0.03 | 0.00 | 68 | 1016.6 |
| 20260502061010 | 3 | 310 | 0.0 | 0.0 | 0.00 | 0.03 | 0.00 | 67 | 1016.7 |
| 20260502060009 | 3 | 310 | 0.0 | 0.0 | 0.00 | 0.03 | 0.00 | 66 | 1016.8 |
| 20260502055008 | 3 | 310 | 0.0 | 0.0 | 0.00 | 0.03 | 0.00 | 64 | 1016.8 |
| 20260502054007 | 4 | 310 | 0.0 | 0.0 | 0.00 | 0.03 | 0.00 | 64 | 1016.8 |
| 20260502053006 | 4 | 310 | 0.0 | 0.0 | 0.00 | 0.03 | 0.00 | 64 | 1016.8 |
| 20260502052005 | 4 | 310 | 0.0 | 0.0 | 0.00 | 0.03 | 0.00 | 64 | 1016.8 |
| 20260502051004 | 4 | 310 | 0.0 | 0.0 | 0.00 | 0.03 | 0.00 | 64 | 1016.8 |
| 20260502044001 | 4 | 308 | 0.0 | 0.0 | 0.00 | 0.03 | 0.00 | 66 | 1016.6 |
| 20260502043001 | 4 | 306 | 0.0 | 3.2 | 0.00 | 0.03 | 0.00 | 66 | 1016.5 |
| 20260502041959 | 4 | 306 | 0.0 | 3.2 | 0.00 | 0.03 | 0.00 | 66 | 1016.3 |
| 20260502040959 | 4 | 312 | 0.0 | 0.0 | 0.00 | 0.03 | 0.00 | 68 | 1016.4 |
| 20260502035958 | 4 | 312 | 0.0 | 0.0 | 0.00 | 0.05 | 0.00 | 69 | 1016.3 |
| 20260502034957 | 4 | 308 | 0.0 | 0.0 | 0.00 | 0.05 | 0.05 | 71 | 1016.2 |
| 20260502033956 | 3 | 308 | 0.0 | 0.0 | 0.00 | 0.05 | 0.05 | 73 | 1016.1 |
| 20260502032955 | 3 | 296 | 0.0 | 0.0 | 0.00 | 0.05 | 0.05 | 76 | 1015.9 |
| 20260502031954 | 3 | 312 | 0.0 | 0.0 | 0.00 | 0.08 | 0.05 | 78 | 1015.9 |
| 20260502030953 | 3 | 315 | 0.0 | 0.0 | 0.00 | 0.10 | 0.05 | 79 | 1015.9 |
| 20260502025952 | 3 | 315 | 0.0 | 0.0 | 0.00 | 0.10 | 0.05 | 79 | 1015.9 |
| 20260502024951 | 3 | 315 | 0.0 | 0.0 | 0.00 | 0.13 | 0.05 | 78 | 1015.9 |
| 20260502023951 | 3 | 315 | 0.0 | 0.0 | 0.00 | 0.13 | 0.05 | 76 | 1015.9 |
| 20260502021949 | 3 | 315 | 0.0 | 0.0 | 0.00 | 0.15 | 0.05 | 74 | 1015.9 |
| 20260502020948 | 4 | 315 | 0.0 | 0.0 | 0.00 | 0.18 | 0.05 | 72 | 1015.8 |
| 20260502015946 | 4 | 315 | 0.0 | 0.0 | 0.00 | 0.20 | 0.05 | 71 | 1015.6 |
| 20260502012945 | 5 | 315 | 0.0 | 0.0 | 0.00 | 0.20 | 0.05 | 68 | 1015.3 |
| 20260502011944 | 5 | 315 | 0.0 | 0.0 | 0.00 | 0.20 | 0.05 | 67 | 1015.3 |
| 20260502010943 | 5 | 314 | 0.0 | 0.0 | 0.00 | 0.20 | 0.05 | 66 | 1015.3 |